Regional Weather Roundup
Issued by NWS

Home | Current Version | Previous Version | Text Only | Print | Product List | Glossary Off
Versions: 1 2 3 4 5 6 7 8 9 10 11 12 13 14 15 16 17 18 19 20 21 22 23 24 25 26 27 28 29 30 31 32 33 34 35 36 37 38 39 40 41 42 43 44 45 46 47 48 49 50

829
ASUS43 KMPX 201901
RWRMN
WEATHER ROUNDUP FOR MINNESOTA
NATIONAL WEATHER SERVICE TWIN CITIES/CHANHASSEN MN
100 PM CST MON NOV 20 2017


NOTE: "FAIR" INDICATES FEW OR NO CLOUDS BELOW 12,000 FEET WITH NO
SIGNIFICANT WEATHER AND/OR OBSTRUCTIONS TO VISIBILITY. N/A MEANS
CURRENT SKY AND/OR WEATHER CONDITIONS ARE NOT AVAILABLE.

MNZ060>063-068>070-202000-
   Twin Cities Metro

CITY           SKY/WX    TMP DP  RH WIND       PRES   REMARKS
TWIN CITIES    CLOUDY    45  30  55 VRB6      29.49F
ST PAUL        MOSUNNY   44  30  57 S9        29.51S
CRYSTAL        CLOUDY    43  26  51 S10       29.47F
BLAINE         CLOUDY    45  28  53 S9        29.47
LAKEVILLE      CLOUDY    45  30  57 SW3       29.49S
EDEN PRAIRIE   CLOUDY    44  29  55 SW10      29.48F
SOUTH ST PAUL  CLOUDY    45  29  55 SW7       29.50S
LAKE ELMO      FAIR      43  32  65 S8        29.50S
$$
MNZ001>005-007-008-013>017-022>024-027-028-202000-
   Northwest Minnesota

CITY           SKY/WX    TMP DP  RH WIND       PRES   REMARKS
BEMIDJI        CLOUDY    42  26  53 SW7       29.31F
HALLOCK        CLOUDY    34  30  86 S15       29.22F WCI  24
ROSEAU         CLOUDY    37  30  75 SW9       29.23F
WARROAD        CLOUDY    37  30  75 SW12G21   29.23F
CROOKSTON      CLOUDY    39  28  65 S13       29.30F
FOSSTON        CLOUDY    39  25  56 SW10      29.32F
DETROIT LAKES  CLOUDY    43  27  52 SW8       29.37F
MOORHEAD       CLOUDY    45  25  45 W12       29.37F
PARK RAPIDS    CLOUDY    45  28  51 SW8       29.33F
MAHNOMEN       FAIR      41  26  54 SW15      29.34F
$$
MNZ006-009>011-018-025>026-202000-
   North Central Minnesota

CITY           SKY/WX    TMP DP  RH WIND       PRES   REMARKS
BAUDETTE       CLOUDY    38  26  62 S12       29.22F
FLAG ISLAND    CLOUDY    36  27  69 SW8       29.21S
INTL FALLS     CLOUDY    39  25  57 S3        29.28F
WASKISH        CLOUDY    39  27  60 S6        29.28F
BIG FORK       CLOUDY    41  27  56 S9        29.31F
LONGVILLE      CLOUDY    43  27  52 SW6       29.34F
GRAND RAPIDS   CLOUDY    40  27  59 S10       29.35F
CRANE LAKE     CLOUDY    36  27  69 S8        29.34F
ORR            CLOUDY    37  25  60 S9        29.29F
COOK           CLOUDY    37  27  65 SE6       29.34F
WALKER         FAIR      44  26  49 SW9G17    29.32F
$$
MNZ012-019>021-037-202000-
   Northeast Minnesota

CITY           SKY/WX    TMP DP  RH WIND       PRES   REMARKS
DULUTH         CLOUDY    32  27  81 SE9       29.39F WCI  24
ELY            CLOUDY    37  27  65 SE9       29.35F
HIBBING        CLOUDY    38  25  59 S8        29.35F
EVELETH        CLOUDY    37  23  56 S9        29.37F
DULUTH HARBOR  CLOUDY    36  30  80 E6        29.44F
TWO HARBORS    CLOUDY    39  32  75 E3        29.40F
SILVER BAY     CLOUDY    34  28  80 CALM      29.41F
GRAND MARAIS     N/A     36  30  79 SE5       29.47F
G MARAIS ARPRT CLOUDY    28  25  86 SE6       29.42F WCI  22
$$
MNZ029>031-032-039>041-046>048-054>057-064-202000-
   West Central Minnesota

CITY           SKY/WX    TMP DP  RH WIND       PRES   REMARKS
FERGUS FALLS   CLOUDY    45  28  53 SW8       29.41S
WHEATON        CLOUDY    50  23  34 SW9       29.41S
MORRIS         CLOUDY    45  28  53 SW8       29.40S
ALEXANDRIA     CLOUDY    40  29  64 SW12      29.40F
ELBOW LAKE     FAIR      43  29  59 W10       29.40S
WADENA         CLOUDY    43  28  56 SW3       29.36F
GLENWOOD       CLOUDY    39  28  65 SW9       29.40F
APPLETON       CLOUDY    46  27  46 SW5       29.41F
BENSON         CLOUDY    43  28  56 SW10      29.42F
ORTONVILLE     CLOUDY    45  28  53 MISG      29.40F
MADISON        CLOUDY    52  27  37 SW8       29.42F
WILLMAR        FAIR      45  32  61 S5        29.43F
$$
MNZ033>034-036-042>043-049>051-058-059-202000-
   Central Minnesota

CITY           SKY/WX    TMP DP  RH WIND       PRES   REMARKS
ST CLOUD       CLOUDY    37  29  72 S10       29.43F
SAUK CENTRE    FAIR      37  30  76 S9        29.39F
PAYNESVILLE    PTSUNNY   40  31  69 S12       29.42F
AITKIN         CLOUDY    37  27  65 S6        29.35F
PINE RIVER     CLOUDY    41  27  56 S8        29.39S
BRAINERD       CLOUDY    40  27  59 S14       29.37F
STAPLES        CLOUDY    39  27  60 SW7       29.38R
LONG PRAIRIE   FAIR      36  30  80 SE9       29.39F
LITTLE FALLS   CLOUDY    36  25  64 S8        29.40F
LITCHFIELD     CLOUDY    43  30  61 CALM      29.45F
BUFFALO        CLOUDY    39  28  65 S8        29.47F
MAPLE LAKE     CLOUDY    39  31  73 S8        29.47F
HUTCHINSON     CLOUDY    41  32  69 S3        29.47F
$$
MNZ037-044-045-052-053-202000-
   East Central Minnesota

CITY           SKY/WX    TMP DP  RH WIND       PRES   REMARKS
PRINCETON      CLOUDY    41  28  60 S10       29.44F
MORA           CLOUDY    36  28  75 S7        29.45F
CAMBRIDGE      CLOUDY    43  28  56 S12       29.44F
RUSH CITY      CLOUDY    39  30  70 S12       29.44F
MOOSE LAKE     CLOUDY    37  28  70 S6        29.38F
HINCKLEY       FAIR      37  32  81 S12       29.41F
CLOQUET        CLOUDY    34  25  69 SE5       29.38F WCI  30
MCGREGOR       CLOUDY    43  28  56 S8        29.37F
$$
MNZ071>073-080-081-089-090-097-098-202000-
   Southwest Minnesota

CITY           SKY/WX    TMP DP  RH WIND       PRES   REMARKS
MONTEVIDEO     CLOUDY    46  30  53 W7        29.42F
GRANITE FALLS  CLOUDY    48  29  48 S9        29.45F
CANBY          MOSUNNY   51  26  37 SW14      29.44F
MARSHALL       CLOUDY    50  25  37 W12       29.45F
REDWOOD FALLS  CLOUDY    47  26  44 W9        29.48S
OLIVIA         CLOUDY    45  30  57 SW9       29.45S
PIPESTONE      MOSUNNY   45  25  45 W13       29.49F
WINDOM         CLOUDY    46  27  46 SW21      29.47F
WORTHINGTON    CLOUDY    45  27  49 SW16      29.49F
JACKSON        CLOUDY    46  27  46 SW15      29.51S
SLAYTON        CLOUDY    44  27  52 S6        29.49F
$$
MNZ065>067-074>077-082>085-091>093-202000-
   South Central Minnesota

CITY           SKY/WX    TMP DP  RH WIND       PRES   REMARKS
MANKATO        CLOUDY    46  30  53 SW14      29.50F
NEW ULM        CLOUDY    48  28  46 CALM      29.47F
ST JAMES       CLOUDY    46  28  49 S10       29.50S
FAIRMONT       CLOUDY    48  29  47 SW17      29.50F
GLENCOE        CLOUDY    41  31  67 S6        29.47F
FARIBAULT      MOSUNNY   45  30  57 S9        29.51R
OWATONNA       CLOUDY    46  32  57 S18       29.49F
WASECA         CLOUDY    45  32  61 SW15G21   29.52S
ALBERT LEA     CLOUDY    48  27  43 SW13G18   29.51F
$$
MNZ078>079-086>088-094>096-202000-
   Southeast Minnesota

CITY           SKY/WX    TMP DP  RH WIND       PRES   REMARKS
ROCHESTER      MOSUNNY   47  33  58 S24G33    29.51F
RED WING       MOSUNNY   48  27  43 SW9       29.50F
STANTON        CLOUDY    47  31  53 SW12      29.48F
DODGE CENTER   CLOUDY    46  30  53 S21       29.49F
WINONA         CLOUDY    52  32  46 SW10G16   29.54F
PRESTON        SUNNY     47  31  52 S18G30    29.55F
$$
ABBREVIATIONS USED IN REMARKS
   TC - TEMPERATURES IN CELSIUS
  WCI - WIND CHILL INDEX
   HX - HEAT INDEX
  VSB - VISIBILITY
$$




USA.gov is the U.S. government's official web portal to all federal, state and local government web resources and services.